Tracking 19720 objects as of 26-Jun-2019
HD Live streaming from Space Station
objects crossing your sky now

PINA 2A

Track PINA 2A now!
10-day predictions


NORAD ID: 41843
Int'l Code: 2016-066C
Perigee: 491.0 km
Apogee: 515.0 km
Inclination: 97.4 °
Period: 94.5 minutes
Semi major axis: 6874 km
RCS: Unknown
Launch date: November 9, 2016
Source: People's Republic of China (PRC)
Launch site: Jiuquan Satellite Launch Center, China (JSC)
aabbcc
Your satellite tracking list
Your tracking list is empty




NASA's NSSDC Master Catalog

Two Line Element Set (TLE):
1 41843U 16066C   19177.50508360  .00000406  00000-0  20046-4 0  9997
2 41843  97.4053 184.2638 0017451 150.3995 330.4035 15.23302750145840
Source of the keplerian elements: AFSPC